sat.trackr.live / text

‹ back to catalog

STARLINK-11743 [DTC]

NORAD 64379 · 2025-127K

PAYLOAD ACTIVE UNKNOWN

§ Identity

Operator
Country
US
Launch date
2025-06-13
Launch site
AFETR
Launch vehicle
Mass (kg)
RCS (m²)

Purposes: comms

External: N2YO · Heavens-Above · Gunter

§ Orbital elements

Epoch: 2026-09-20T06:54:33.462720Z

Period
91.66 min
Inclination
42.9989°
Eccentricity
0.0001494
Mean motion
15.70965467 rev/d
Perigee alt
355.1 km
Apogee alt
357.1 km
Semi-major
6,734.3 km
B*
1.3853e-3
RAAN
351.9158°
Arg perigee
242.1387°
Mean anomaly
117.9329°
Rev number
7,410

§ Raw data

STARLINK-11743 [DTC]1 64379U 25127K   26263.28788730  .00182218  00000+0  13853-2 0  99912 64379  42.9989 351.9158 0001494 242.1387 117.9329 15.70965467 74103

JSON: /api/v1/satellites/64379 · /tle

For live sub-satellite position, see the globe view (requires WebGL).

§ Visibility from observer

Set your observer location to see the next 7 days of passes ≥ 10°. The values pass through the URL so the page stays shareable.

No JS? Fill the form by hand. The geolocation button needs JavaScript.